sat.trackr.live / text

‹ back to catalog

SES-17

NORAD 49332 · 2021-095A

PAYLOAD ACTIVE UNKNOWN

§ Identity

Operator
Country
SES
Launch date
2021-10-24
Launch site
FRGUI
Launch vehicle
Mass (kg)
RCS (m²)

Purposes: comms

External: N2YO · Heavens-Above · Gunter

§ Orbital elements

Epoch: 2026-09-20T03:30:38.801952Z

Period
1,436.12 min
Inclination
0.0357°
Eccentricity
0.0001056
Mean motion
1.00269876 rev/d
Perigee alt
35,782.7 km
Apogee alt
35,791.6 km
Semi-major
42,165.3 km
B*
0.0000e+0
RAAN
34.6440°
Arg perigee
129.7613°
Mean anomaly
180.2095°
Rev number
1,880

§ Raw data

SES-171 49332U 21095A   26263.14628243 -.00000276  00000+0  00000+0 0  99912 49332   0.0357  34.6440 0001056 129.7613 180.2095  1.00269876 18801

JSON: /api/v1/satellites/49332 · /tle

For live sub-satellite position, see the globe view (requires WebGL).

§ Visibility from observer

Set your observer location to see the next 7 days of passes ≥ 10°. The values pass through the URL so the page stays shareable.

No JS? Fill the form by hand. The geolocation button needs JavaScript.